Location: Albany
(42.6526°N, 73.7562°W)
Time: 03:01:49
(UTC+00:00)

COSMOS 2455 - Pass Details

Date: 19 November 2019
Orbit: 902 x 908 km, 67.1° (Epoch: 15 December)

Event Time Altitude Azimuth Distance (km) Brightness Sun altitude
Rises 23:13:06 0° 173° (S) 3,515 6.0 -19.0°
Reaches altitude 10° 23:15:59 10° 161° (SSE) 2,580 5.1 -19.5°
Enters shadow 23:19:30 24° 127° (SE) 1,783 4.0 -20.1°
